STARLINK-32784, 62607

Orbit data source: Space-Track

STARLINK-32784, 62607 is a payload satellite owned by SpaceX/Seattle (US) in LEO that was launched on Mon, 13 Jan 2025 UTC via an FALCON 9 launch vehicle from the Air Force Eastern Test Range (AFETR). Payloads include a variety of satellites, spacecraft, and rockets equipped with specific instruments for various scientific and technological missions. These include communications satellites like Starlink; space stations such as the ISS; scientific satellites like the Hubble; Earth observation satellites from companies like Planet Labs, Umbra, and HawkEye 360; GPS; miniature CubeSats for education and research; and military/defense satellites.

Loading next visibility...
STARLINK-32784 details
Identifier
62607, 2025-008W
Orbit
LEO
Last TLE update8 hours ago
Origin
Flag of USSpaceX/Seattle (US)
ManufacturerSpaceX/Seattle
MissionOperational spacecraft
Bus & MotorSTARLINK V2M, Unknown motor
Mass730 kg wet, ~700 kg dry
Launch date (UTC)
2025-01-13 (3 weeks ago)
Launch vehicle
FALCON 9
Launch site
Air Force Eastern Test Range (AFETR)
Object type
Payload
Rocket body
Debris
Shape & HBRUnknown
Radar Cross SectionLarge (>1 m²)

Expand to show TLE details & history

TLE from 8 hours ago
0 STARLINK-32784
1 62607U 25008W   25035.83335648  .00049276  00000-0  84115-3 0  9991
2 62607  43.0004   7.9743 0001719 263.2749 358.1292 15.50555939  4736
Epoch: 2025-02-04T20:00Z
Definitive object data (Epoch: 2025-02-04T20:00:01.999Z)
Latitude-42.56453°
Longitude-168.92371°
Altitude427.021 km
Speed7.656 km/s
True Right ascension17h 45m 16s
True Declination-42° 23' 06"
Sunlit
Object was in daylight at TLE epoch
Visualization TLE readout
Latitude-20.93544°
Longitude-93.29889°
Altitude419.215 km
Speed7.661 km/s
Apparent Right ascension20h 46m 28s
Apparent Declination-35° 13' 24"
Sunlit
Object is in daylight
Visualization observer readout
Local Sidereal Time06:02:55
Azimuth265.073° W
Elevation-57.54°
Doppler factor1
Orbital elements
Apogee altitude418.234 km
Perigee altitude415.898 km
Semi-major axis6,795.203 km
Eccentricity0.0001719
Inclination43.0004°
RAAN7.9743°
Arg. of periapsis263.2749°
True anomaly358.12856°
Mean anomaly358.1292°
Eccentric anomaly358.12888°
Mean motion3.87471 °/min
BSTAR0.00084115
Orbital period92.91 mins
Loading maneuver chart data...
Loading historical data...
Loading historical data...
Loading historical data...
Loading historical data...
Loading historical data...
Loading historical data...
Loading historical data...

STARLINK-32784 Visibility forecast

Observer location: undefined°, undefined

Span
Click to sort rows by Start time (UTC) header in descending order
Start Az.
Max El. time (UTC)
Max El. Az.
Max El.
End time (UTC)
End Az.
6 mins2025-02-05 04:30:08.815Z287.976° WNW2025-02-05 04:33:08.815Z13.542° NNE36.182°2025-02-05 04:36:08.815Z77.873° E
4 mins2025-02-05 06:09:08.815Z286.097° WNW2025-02-05 06:10:08.815Z278.686° WNW42.502°2025-02-05 06:13:08.815Z111.495° ESE
4 mins2025-02-06 02:04:08.815Z246.521° WSW2025-02-06 02:05:08.815Z237.745° WSW42.446°2025-02-06 02:08:08.815Z72.847° E
5 mins2025-02-06 03:41:08.815Z290.502° WNW2025-02-06 03:43:08.815Z359.786° N36.458°2025-02-06 03:46:08.815Z72.986° E
|